VOI900 MMMX-MGGT

Flight info

Callsign VOI900
Flight time N/A
Altitude 35000
Route UKUNO3A UKUNO UT108 VER UA552 AUR
Aircraft A21N/M-SDE2E3FGHIRWXY/LB1

Departure

Time N/A
Airport Mexico City Benito Juárez International Airport (MMMX)

Arrival

Time 2026-04-18 10:19
Airport La Aurora International Airport (MGGT)
Time Latitude Longitude Altitude Speed Heading
2026-04-18 09:07 19.40256 -97.69324 28708 ft 477 kts 97°
2026-04-18 09:07 19.39915 -97.65818 28984 ft 479 kts 97°
2026-04-18 09:08 19.39573 -97.62311 29320 ft 479 kts 97°
2026-04-18 09:08 19.39230 -97.58797 29671 ft 479 kts 97°
2026-04-18 09:08 19.38885 -97.55285 30010 ft 479 kts 97°
2026-04-18 09:08 19.38540 -97.51785 30308 ft 479 kts 97°
2026-04-18 09:09 19.38191 -97.48271 30611 ft 478 kts 97°
2026-04-18 09:09 19.37841 -97.44764 30897 ft 478 kts 97°
2026-04-18 09:09 19.37491 -97.41262 31218 ft 478 kts 97°
2026-04-18 09:09 19.37143 -97.37754 31504 ft 478 kts 97°
2026-04-18 09:10 19.36798 -97.34254 31797 ft 477 kts 97°
2026-04-18 09:10 19.36453 -97.30806 32091 ft 477 kts 97°
2026-04-18 09:10 19.36104 -97.27318 32391 ft 477 kts 97°
2026-04-18 09:10 19.35756 -97.23827 32685 ft 477 kts 97°
2026-04-18 09:11 19.35404 -97.20335 32962 ft 477 kts 97°
2026-04-18 09:11 19.35054 -97.16841 33266 ft 476 kts 97°
2026-04-18 09:11 19.34704 -97.13358 33525 ft 476 kts 98°
2026-04-18 09:11 19.34354 -97.09871 33780 ft 476 kts 98°
2026-04-18 09:12 19.34001 -97.06392 34056 ft 475 kts 98°
2026-04-18 09:12 19.33457 -97.02951 34290 ft 473 kts 105°
2026-04-18 09:12 19.32703 -96.99563 34513 ft 472 kts 105°
2026-04-18 09:12 19.31932 -96.96176 34744 ft 471 kts 105°
2026-04-18 09:13 19.31165 -96.92813 34948 ft 471 kts 105°
2026-04-18 09:13 19.30399 -96.89440 34989 ft 470 kts 105°
2026-04-18 09:13 19.28883 -96.82726 34944 ft 469 kts 105°
2026-04-18 09:14 19.27361 -96.76030 34937 ft 468 kts 105°
2026-04-18 09:14 19.25838 -96.69318 34929 ft 468 kts 105°
2026-04-18 09:15 19.24325 -96.62653 34915 ft 468 kts 105°
2026-04-18 09:15 19.22792 -96.55952 34911 ft 468 kts 105°
2026-04-18 09:16 19.21261 -96.49256 34885 ft 468 kts 105°
2026-04-18 09:16 19.19733 -96.42547 34888 ft 468 kts 105°
2026-04-18 09:17 19.18198 -96.35850 34883 ft 468 kts 105°
2026-04-18 09:17 19.16660 -96.29153 34882 ft 468 kts 105°
2026-04-18 09:18 19.15135 -96.22534 34878 ft 468 kts 105°
2026-04-18 09:18 19.12649 -96.16237 34881 ft 464 kts 124°
2026-04-18 09:19 19.09034 -96.10606 34871 ft 463 kts 126°
2026-04-18 09:19 19.05381 -96.04974 34868 ft 465 kts 126°
2026-04-18 09:20 19.01752 -95.99320 34864 ft 465 kts 126°
2026-04-18 09:20 18.98133 -95.93676 34866 ft 463 kts 126°
2026-04-18 09:21 18.94513 -95.88035 34864 ft 464 kts 126°
2026-04-18 09:21 18.90891 -95.82402 34860 ft 463 kts 126°
2026-04-18 09:22 18.87297 -95.76813 34855 ft 463 kts 126°
2026-04-18 09:22 18.83672 -95.71190 34865 ft 463 kts 126°
2026-04-18 09:23 18.80041 -95.65566 34857 ft 464 kts 126°
2026-04-18 09:23 18.76405 -95.59925 34866 ft 464 kts 126°
2026-04-18 09:24 18.72771 -95.54305 34865 ft 464 kts 126°
2026-04-18 09:24 18.69133 -95.48669 34871 ft 464 kts 126°
2026-04-18 09:25 18.65503 -95.43054 34867 ft 462 kts 126°
2026-04-18 09:25 18.61873 -95.37453 34875 ft 462 kts 126°
2026-04-18 09:26 18.58239 -95.31848 34879 ft 463 kts 126°
2026-04-18 09:26 18.54612 -95.26245 34876 ft 463 kts 126°
2026-04-18 09:27 18.50977 -95.20641 34881 ft 463 kts 126°
2026-04-18 09:27 18.47338 -95.15031 34881 ft 463 kts 126°
2026-04-18 09:28 18.43704 -95.09435 34882 ft 463 kts 126°
2026-04-18 09:28 18.40083 -95.03876 34888 ft 463 kts 126°
2026-04-18 09:29 18.36440 -94.98285 34888 ft 463 kts 126°
2026-04-18 09:29 18.32799 -94.92697 34882 ft 463 kts 125°
2026-04-18 09:30 18.29157 -94.87113 34882 ft 463 kts 125°
2026-04-18 09:30 18.25509 -94.81524 34883 ft 463 kts 125°
2026-04-18 09:31 18.21863 -94.75946 34884 ft 463 kts 125°
2026-04-18 09:31 18.18209 -94.70359 34878 ft 463 kts 125°
2026-04-18 09:32 18.14577 -94.64812 34874 ft 463 kts 125°
2026-04-18 09:32 18.10909 -94.59254 34875 ft 462 kts 128°
2026-04-18 09:33 18.06511 -94.54337 34866 ft 463 kts 137°
2026-04-18 09:33 18.01872 -94.49629 34862 ft 463 kts 137°
2026-04-18 09:34 17.97244 -94.44904 34865 ft 463 kts 136°
2026-04-18 09:34 17.92658 -94.40212 34861 ft 463 kts 136°
2026-04-18 09:35 17.88014 -94.35460 34863 ft 463 kts 136°
2026-04-18 09:35 17.84178 -94.31544 34862 ft 463 kts 137°
2026-04-18 09:36 17.78806 -94.26064 34861 ft 463 kts 136°
2026-04-18 09:36 17.74937 -94.22114 34858 ft 463 kts 136°
2026-04-18 09:37 17.70319 -94.17406 34860 ft 463 kts 136°
2026-04-18 09:37 17.65693 -94.12693 34868 ft 463 kts 136°
2026-04-18 09:38 17.61071 -94.07993 34863 ft 463 kts 136°
2026-04-18 09:38 17.56456 -94.03303 34868 ft 463 kts 136°
2026-04-18 09:39 17.51826 -93.98598 34875 ft 463 kts 136°
2026-04-18 09:39 17.47206 -93.93903 34872 ft 463 kts 136°
2026-04-18 09:40 17.42586 -93.89213 34878 ft 463 kts 136°
2026-04-18 09:40 17.37965 -93.84517 34877 ft 463 kts 136°
2026-04-18 09:41 17.33333 -93.79821 36118 ft 474 kts 136°
2026-04-18 09:41 17.30933 -93.77391 35460 ft 496 kts 136°
2026-04-18 09:41 17.28434 -93.74863 35153 ft 502 kts 136°
2026-04-18 09:42 17.25919 -93.72316 35037 ft 504 kts 136°
2026-04-18 09:42 17.23391 -93.69758 35001 ft 506 kts 136°
2026-04-18 09:42 17.18327 -93.64641 35000 ft 506 kts 136°
2026-04-18 09:43 17.13261 -93.59521 35003 ft 506 kts 136°
2026-04-18 09:43 17.08195 -93.54415 35002 ft 506 kts 136°
2026-04-18 09:44 17.03127 -93.49306 35002 ft 506 kts 136°
2026-04-18 09:44 16.98056 -93.44201 35002 ft 506 kts 136°
2026-04-18 09:45 16.92982 -93.39086 35001 ft 506 kts 136°
2026-04-18 09:45 16.87912 -93.33976 35002 ft 506 kts 136°
2026-04-18 09:46 16.82865 -93.28901 35002 ft 506 kts 136°
2026-04-18 09:46 16.77754 -93.23777 35001 ft 506 kts 136°
2026-04-18 09:47 16.72679 -93.18683 35002 ft 506 kts 136°
2026-04-18 09:47 16.67616 -93.13610 35001 ft 504 kts 136°
2026-04-18 09:48 16.62557 -93.08546 34995 ft 505 kts 136°
2026-04-18 09:48 16.57499 -93.03453 34999 ft 505 kts 134°
2026-04-18 09:49 16.52955 -92.97852 35001 ft 506 kts 129°
2026-04-18 09:49 16.48526 -92.92215 35001 ft 506 kts 129°
2026-04-18 09:50 16.44059 -92.86545 35002 ft 506 kts 129°
2026-04-18 09:50 16.39614 -92.80922 35002 ft 506 kts 130°
2026-04-18 09:51 16.35140 -92.75254 35001 ft 506 kts 129°
2026-04-18 09:51 16.30666 -92.69586 35002 ft 506 kts 129°
2026-04-18 09:52 16.26192 -92.63926 35002 ft 506 kts 130°
2026-04-18 09:52 16.21716 -92.58275 35001 ft 506 kts 130°
2026-04-18 09:53 16.17245 -92.52639 35000 ft 506 kts 130°
2026-04-18 09:53 16.12762 -92.46985 35001 ft 506 kts 130°
2026-04-18 09:54 16.08288 -92.41340 35001 ft 506 kts 130°
2026-04-18 09:54 16.03821 -92.35713 34999 ft 503 kts 130°
2026-04-18 09:55 15.99403 -92.30157 35001 ft 500 kts 130°
2026-04-18 09:55 15.94947 -92.24551 35001 ft 498 kts 130°
2026-04-18 09:56 15.90531 -92.19005 35003 ft 498 kts 130°
2026-04-18 09:56 15.86122 -92.13466 35002 ft 497 kts 130°
2026-04-18 09:57 15.81703 -92.07922 35002 ft 497 kts 130°
2026-04-18 09:57 15.77322 -92.02430 35002 ft 497 kts 130°
2026-04-18 09:58 15.72906 -91.96903 35002 ft 497 kts 130°
2026-04-18 09:58 15.68788 -91.91137 35002 ft 498 kts 124°
2026-04-18 09:59 15.64900 -91.85187 35001 ft 498 kts 124°
2026-04-18 10:00 15.59072 -91.76267 34972 ft 498 kts 124°
2026-04-18 10:00 15.57106 -91.73264 34441 ft 501 kts 124°
2026-04-18 10:00 15.55161 -91.70295 33708 ft 496 kts 124°
2026-04-18 10:00 15.53229 -91.67345 32960 ft 492 kts 124°
2026-04-18 10:01 15.51294 -91.64398 32198 ft 499 kts 124°
2026-04-18 10:01 15.49313 -91.61389 31419 ft 507 kts 124°
2026-04-18 10:01 15.47318 -91.58362 30721 ft 511 kts 124°
2026-04-18 10:01 15.45318 -91.55321 30040 ft 506 kts 124°
2026-04-18 10:02 15.43351 -91.52329 29352 ft 497 kts 124°
2026-04-18 10:02 15.41439 -91.49421 28674 ft 490 kts 124°
2026-04-18 10:02 15.39542 -91.46539 28023 ft 482 kts 124°
2026-04-18 10:02 15.37663 -91.43683 27386 ft 474 kts 124°
2026-04-18 10:03 15.35820 -91.40882 26731 ft 467 kts 124°
2026-04-18 10:03 15.34004 -91.38121 26097 ft 460 kts 124°
2026-04-18 10:03 15.32217 -91.35402 25479 ft 453 kts 124°
2026-04-18 10:03 15.30453 -91.32719 24881 ft 445 kts 124°
2026-04-18 10:04 15.28739 -91.30114 24274 ft 439 kts 124°
2026-04-18 10:04 15.27029 -91.27518 23661 ft 433 kts 124°
2026-04-18 10:04 15.25342 -91.24959 23077 ft 427 kts 124°
2026-04-18 10:04 15.23676 -91.22438 22504 ft 421 kts 124°
2026-04-18 10:05 15.22030 -91.19948 21909 ft 416 kts 124°
2026-04-18 10:05 15.20402 -91.17485 21331 ft 413 kts 124°
2026-04-18 10:05 15.18783 -91.15037 20762 ft 410 kts 124°
2026-04-18 10:05 15.17178 -91.12612 20202 ft 407 kts 124°
2026-04-18 10:06 15.15583 -91.10202 19533 ft 405 kts 124°
2026-04-18 10:06 15.13995 -91.07798 18906 ft 401 kts 124°
2026-04-18 10:06 15.12308 -91.05533 18394 ft 394 kts 134°
2026-04-18 10:06 15.10334 -91.03608 17947 ft 387 kts 138°
2026-04-18 10:07 15.08350 -91.01745 17514 ft 384 kts 138°
2026-04-18 10:07 15.06381 -90.99894 17057 ft 381 kts 138°
2026-04-18 10:07 15.04423 -90.98046 16586 ft 380 kts 138°
2026-04-18 10:07 15.02476 -90.96205 16133 ft 378 kts 138°
2026-04-18 10:08 15.00547 -90.94378 15688 ft 375 kts 138°
2026-04-18 10:08 14.98626 -90.92552 15243 ft 373 kts 137°
2026-04-18 10:08 14.96720 -90.90742 14797 ft 371 kts 138°
2026-04-18 10:08 14.94820 -90.88939 14342 ft 370 kts 138°
2026-04-18 10:09 14.92949 -90.87167 13902 ft 368 kts 138°
2026-04-18 10:09 14.91044 -90.85361 13455 ft 366 kts 138°
2026-04-18 10:09 14.89198 -90.83612 13023 ft 364 kts 138°
2026-04-18 10:09 14.87334 -90.81847 12600 ft 361 kts 138°
2026-04-18 10:10 14.85487 -90.80099 12190 ft 359 kts 138°
2026-04-18 10:10 14.83649 -90.78357 11764 ft 358 kts 138°
2026-04-18 10:10 14.81820 -90.76625 11333 ft 357 kts 138°
2026-04-18 10:10 14.79993 -90.74896 10902 ft 355 kts 138°
2026-04-18 10:11 14.78188 -90.73188 10576 ft 346 kts 138°
2026-04-18 10:11 14.76443 -90.71536 10376 ft 334 kts 138°
2026-04-18 10:11 14.74764 -90.69947 10211 ft 321 kts 138°
2026-04-18 10:11 14.73143 -90.68414 10054 ft 309 kts 138°
2026-04-18 10:12 14.71592 -90.66947 9678 ft 299 kts 138°
2026-04-18 10:12 14.70076 -90.65515 9224 ft 289 kts 138°
2026-04-18 10:12 14.68621 -90.64140 8812 ft 278 kts 138°
2026-04-18 10:12 14.67215 -90.62815 8491 ft 269 kts 138°
2026-04-18 10:13 14.65861 -90.61545 8323 ft 257 kts 138°
2026-04-18 10:13 14.64574 -90.60337 8181 ft 244 kts 138°
2026-04-18 10:13 14.63351 -90.59187 8026 ft 231 kts 138°
2026-04-18 10:13 14.62182 -90.58091 7727 ft 226 kts 138°
2026-04-18 10:14 14.61023 -90.57005 7359 ft 224 kts 138°
2026-04-18 10:14 14.59869 -90.55925 6981 ft 223 kts 138°
2026-04-18 10:14 14.58739 -90.54866 6608 ft 221 kts 138°
2026-04-18 10:14 14.57597 -90.53813 6220 ft 220 kts 143°
2026-04-18 10:15 14.56258 -90.53075 6110 ft 219 kts 164°
2026-04-18 10:15 14.54777 -90.52683 6106 ft 218 kts 168°
2026-04-18 10:15 14.53414 -90.52366 6141 ft 186 kts 168°
2026-04-18 10:15 14.52218 -90.52093 6144 ft 171 kts 168°
2026-04-18 10:16 14.51086 -90.51831 6135 ft 156 kts 169°
2026-04-18 10:16 14.50044 -90.51850 6105 ft 152 kts 201°
2026-04-18 10:16 14.49266 -90.52566 6114 ft 152 kts 239°
2026-04-18 10:16 14.49067 -90.53648 6131 ft 159 kts 273°
2026-04-18 10:17 14.49178 -90.54746 6118 ft 153 kts 286°
2026-04-18 10:17 14.49867 -90.55532 6093 ft 155 kts 340°
2026-04-18 10:17 14.50911 -90.55402 6117 ft 157 kts 25°
2026-04-18 10:17 14.51883 -90.54895 6009 ft 155 kts 23°
2026-04-18 10:18 14.52551 -90.54628 5869 ft 155 kts 19°
2026-04-18 10:18 14.53907 -90.54180 5574 ft 154 kts 17°
2026-04-18 10:18 14.54928 -90.53847 5358 ft 154 kts 17°
2026-04-18 10:18 14.55615 -90.53616 5212 ft 153 kts 18°
2026-04-18 10:19 14.56955 -90.53180 4971 ft 152 kts 16°
2026-04-18 10:19 14.57617 -90.52973 4900 ft 140 kts 17°
2026-04-18 10:19 14.58289 -90.52760 4923 ft 63 kts 18°
2026-04-18 10:19 14.58552 -90.52678 4926 ft 32 kts 15°
2026-04-18 10:20 14.58639 -90.52652 4929 ft 13 kts 17°
2026-04-18 10:20 14.58730 -90.52623 4933 ft 5 kts 17°
2026-04-18 10:20 14.58762 -90.52638 4934 ft 7 kts 304°
2026-04-18 10:20 14.58776 -90.52681 4934 ft 6 kts 284°
2026-04-18 10:21 14.58793 -90.52733 4934 ft 9 kts 296°
2026-04-18 10:21 14.58805 -90.52754 4935 ft 2 kts 306°
2026-04-18 10:21 14.58817 -90.52770 4935 ft 4 kts 317°
2026-04-18 10:21 14.58843 -90.52794 4935 ft 6 kts 317°
2026-04-18 10:22 14.58865 -90.52829 4935 ft 6 kts 299°
2026-04-18 10:22 14.58876 -90.52863 4935 ft 2 kts 302°
2026-04-18 10:22 14.58881 -90.52880 4935 ft 3 kts 290°
2026-04-18 10:22 14.58885 -90.52891 4935 ft 1 kts 287°
2026-04-18 10:23 14.58889 -90.52904 4935 ft 1 kts 288°